sat.trackr.live / text

‹ back to catalog

STARLINK-34748

NORAD 64848 · 2025-152G

PAYLOAD ACTIVE UNKNOWN

§ Identity

Operator
Country
US
Launch date
2025-07-19
Launch site
AFWTR
Launch vehicle
Mass (kg)
RCS (m²)

Purposes: comms

External: N2YO · Heavens-Above · Gunter

§ Orbital elements

Epoch: 2026-09-20T13:41:05.058816Z

Period
93.91 min
Inclination
97.2813°
Eccentricity
0.0002336
Mean motion
15.33458588 rev/d
Perigee alt
463.9 km
Apogee alt
467.1 km
Semi-major
6,843.6 km
B*
4.5466e-4
RAAN
114.1119°
Arg perigee
88.3260°
Mean anomaly
271.8250°
Rev number
6,483

§ Raw data

STARLINK-347481 64848U 25152G   26263.57019744  .00014639  00000+0  45466-3 0  99912 64848  97.2813 114.1119 0002336  88.3260 271.8250 15.33458588 64837

JSON: /api/v1/satellites/64848 · /tle

For live sub-satellite position, see the globe view (requires WebGL).

§ Visibility from observer

Set your observer location to see the next 7 days of passes ≥ 10°. The values pass through the URL so the page stays shareable.

No JS? Fill the form by hand. The geolocation button needs JavaScript.